contact:dominique.lefevre@mio.osupytheas.fr, maurice.libes@osupytheas.fr
Project:EMSO Ligure-ouest http://www.emso-fr.org/EMSO-France
Sensor Aquadopp, line 13 Serial AQD14315 
DOI : "https://doi.org/10.17882/74513; https://doi.org/10.17882/83244" 
Title:EMSO Ligure Ouest : Data ligne ALBATROSS capteur AQUADOPP - deploiement 2021
Id,Date,Profondeur,Latitude,Longitude,X_East,Y_North,Z_Up,Amplitude_X,Amplitude_Y,Amplitude_Z,Batterie,SoundSpeed,Heading,Pitch,Roll,Pressure,Temperature,Speed,Direction
, , m, degrees North, degrees East, m.s-1, m.s-1,m.s-1, 1, 1, 1, Volt, m.s-1, degree, degree, degree, dbar, degree_C, m.s-1, degree
13,2022-07-28T23:30:00,2400.0,42.79,6.0312,-0.008,-0.002,-0.017,68.0,60.0,65.0,13.2,1504.9,208.0,-0.3,-0.1,2393.139,13.34,0.008,256.0
13,2022-07-29T00:00:00,2400.0,42.79,6.0312,-0.017,-0.002,-0.013,67.0,62.0,64.0,13.2,1504.9,212.7,-0.2,-0.1,2393.16,13.34,0.017,263.3
13,2022-07-29T00:30:00,2400.0,42.79,6.0312,-0.023,-0.004,-0.014,67.0,62.0,64.0,13.2,1504.9,215.7,-0.2,-0.1,2393.127,13.34,0.023,260.1
13,2022-07-29T01:00:00,2400.0,42.79,6.0312,-0.034,0.015,-0.04,67.0,62.0,62.0,13.1,1504.9,216.5,-0.2,-0.2,2393.117,13.34,0.037,293.8
13,2022-07-29T01:30:00,2400.0,42.79,6.0312,-0.026,0.007,-0.019,70.0,62.0,66.0,13.2,1504.9,217.6,-0.3,-0.2,2393.104,13.34,0.026,285.1
13,2022-07-29T02:00:00,2400.0,42.79,6.0312,-0.037,0.0,-0.02,70.0,62.0,64.0,13.2,1504.9,217.4,-0.1,-0.2,2393.067,13.34,0.037,270.0
13,2022-07-29T02:30:00,2400.0,42.79,6.0312,-0.018,0.0,-0.008,68.0,61.0,64.0,13.2,1504.9,222.1,-0.2,-0.1,2393.05,13.34,0.018,270.0
13,2022-07-29T03:00:00,2400.0,42.79,6.0312,-0.052,-0.005,-0.015,70.0,62.0,64.0,13.2,1504.9,214.6,-0.1,-0.2,2393.089,13.34,0.052,264.5
13,2022-07-29T03:30:00,2400.0,42.79,6.0312,-0.031,0.021,-0.001,67.0,62.0,64.0,13.2,1504.9,218.8,-0.1,-0.1,2393.088,13.34,0.037,304.1
13,2022-07-29T04:00:00,2400.0,42.79,6.0312,-0.053,0.0,-0.024,69.0,61.0,63.0,13.2,1504.9,217.4,-0.2,0.0,2393.116,13.34,0.053,270.0
13,2022-07-29T04:30:00,2400.0,42.79,6.0312,-0.029,0.004,-0.026,69.0,63.0,65.0,13.1,1504.9,214.3,-0.2,-0.1,2393.078,13.34,0.029,277.8
13,2022-07-29T05:00:00,2400.0,42.79,6.0312,-0.034,-0.017,0.014,69.0,63.0,65.0,13.2,1504.9,215.9,-0.4,-0.2,2393.161,13.34,0.038,243.4
13,2022-07-29T05:30:00,2400.0,42.79,6.0312,-0.024,-0.028,-0.009,68.0,61.0,63.0,13.2,1504.9,215.4,-0.2,-0.2,2393.112,13.34,0.036,220.6
13,2022-07-29T06:00:00,2400.0,42.79,6.0312,-0.035,0.01,-0.004,66.0,62.0,65.0,13.1,1504.9,216.8,-0.1,-0.2,2393.176,13.34,0.036,285.9
13,2022-07-29T06:30:00,2400.0,42.79,6.0312,-0.041,-0.018,-0.004,69.0,65.0,66.0,13.2,1504.9,213.2,-0.1,0.0,2393.179,13.34,0.044,246.3
13,2022-07-29T07:30:00,2400.0,42.79,6.0312,-0.059,0.0,-0.026,67.0,60.0,62.0,13.2,1504.9,213.6,-0.2,-0.1,2393.198,13.34,0.058,270.0
13,2022-07-29T08:00:00,2400.0,42.79,6.0312,-0.04,-0.003,0.004,65.0,61.0,61.0,13.2,1504.9,215.7,-0.3,0.0,2393.183,13.34,0.04,265.7
13,2022-07-29T08:30:00,2400.0,42.79,6.0312,-0.048,0.002,0.008,72.0,63.0,66.0,13.2,1504.9,216.5,-0.2,0.0,2393.204,13.34,0.048,272.4
13,2022-07-29T09:00:00,2400.0,42.79,6.0312,-0.035,0.01,0.025,75.0,66.0,69.0,13.2,1504.9,220.9,-0.3,-0.1,2393.171,13.34,0.036,285.9
13,2022-07-29T09:30:00,2400.0,42.79,6.0312,-0.043,0.013,-0.022,66.0,59.0,59.0,13.1,1504.9,220.5,-0.6,0.0,2393.194,13.34,0.044,286.8
13,2022-07-29T10:00:00,2400.0,42.79,6.0312,-0.054,-0.002,0.009,66.0,58.0,60.0,13.1,1504.9,220.4,-0.2,0.0,2393.137,13.34,0.054,267.9
13,2022-07-29T10:30:00,2400.0,42.79,6.0312,-0.047,0.014,-0.015,60.0,59.0,63.0,13.1,1504.9,218.9,-0.1,0.0,2393.116,13.34,0.049,286.6
13,2022-07-29T11:00:00,2400.0,42.79,6.0312,-0.035,-0.011,-0.003,67.0,62.0,65.0,13.2,1504.9,221.9,-0.2,-0.1,2393.096,13.34,0.036,252.6
13,2022-07-29T11:30:00,2400.0,42.79,6.0312,-0.057,0.011,0.012,67.0,61.0,63.0,13.1,1504.9,222.2,-0.3,-0.1,2393.074,13.34,0.058,280.9
13,2022-07-29T12:00:00,2400.0,42.79,6.0312,-0.045,0.011,-0.017,64.0,58.0,59.0,13.1,1504.9,223.0,-0.5,-0.1,2393.077,13.34,0.046,283.7
13,2022-07-29T13:00:00,2400.0,42.79,6.0312,-0.051,0.017,-0.015,70.0,62.0,66.0,13.2,1504.9,223.9,0.1,0.0,2393.055,13.34,0.053,288.4
13,2022-07-29T13:30:00,2400.0,42.79,6.0312,-0.029,0.018,0.009,69.0,65.0,64.0,13.2,1504.9,224.3,0.1,0.0,2393.046,13.34,0.034,301.8
13,2022-07-29T14:00:00,2400.0,42.79,6.0312,-0.027,-0.013,-0.004,69.0,64.0,62.0,13.2,1504.9,224.2,-0.5,-0.1,2393.073,13.34,0.029,244.3
13,2022-07-29T14:30:00,2400.0,42.79,6.0312,-0.033,0.013,0.013,70.0,64.0,63.0,13.1,1504.9,219.1,-0.3,0.0,2393.044,13.34,0.035,291.5
13,2022-07-29T15:00:00,2400.0,42.79,6.0312,-0.042,0.009,0.013,66.0,64.0,63.0,13.2,1504.9,220.6,-0.3,-0.1,2393.025,13.34,0.042,282.1
13,2022-07-29T15:30:00,2400.0,42.79,6.0312,-0.016,0.013,-0.008,68.0,63.0,65.0,13.2,1504.9,221.1,-0.4,-0.1,2393.074,13.34,0.02,309.1
13,2022-07-29T16:00:00,2400.0,42.79,6.0312,-0.022,0.012,-0.03,69.0,66.0,68.0,13.2,1504.9,216.6,-0.3,0.0,2393.093,13.34,0.025,298.6
13,2022-07-29T16:30:00,2400.0,42.79,6.0312,-0.036,0.001,-0.013,67.0,59.0,63.0,13.1,1504.9,222.6,-0.3,-0.1,2393.091,13.34,0.036,271.6
13,2022-07-29T17:00:00,2400.0,42.79,6.0312,-0.021,0.011,-0.007,64.0,57.0,60.0,13.2,1504.9,224.6,-0.2,-0.1,2393.135,13.34,0.023,297.6
13,2022-07-29T17:30:00,2400.0,42.79,6.0312,-0.035,-0.002,-0.021,65.0,59.0,61.0,13.1,1504.9,218.5,-0.2,0.0,2393.178,13.34,0.035,266.7
13,2022-07-29T18:00:00,2400.0,42.79,6.0312,-0.028,-0.012,-0.01,65.0,59.0,62.0,13.2,1504.9,220.3,-0.4,0.0,2393.208,13.34,0.03,246.8
13,2022-07-29T18:30:00,2400.0,42.79,6.0312,-0.041,-0.013,-0.026,65.0,60.0,61.0,13.1,1504.9,218.9,-0.3,-0.1,2393.191,13.34,0.043,252.4
13,2022-07-29T19:00:00,2400.0,42.79,6.0312,-0.03,-0.004,-0.006,67.0,61.0,64.0,13.1,1504.9,216.8,-0.1,0.0,2393.216,13.34,0.03,262.4
13,2022-07-29T19:30:00,2400.0,42.79,6.0312,-0.053,-0.03,0.0,68.0,63.0,64.0,13.1,1504.9,215.0,-0.4,0.0,2393.259,13.34,0.06,240.5
13,2022-07-29T20:00:00,2400.0,42.79,6.0312,-0.052,0.001,0.006,69.0,59.0,62.0,13.1,1504.9,221.4,-0.6,0.0,2393.227,13.34,0.052,271.1
13,2022-07-29T20:30:00,2400.0,42.79,6.0312,-0.041,-0.011,-0.023,69.0,62.0,63.0,13.2,1504.9,219.2,-0.2,0.0,2393.259,13.34,0.042,255.0
13,2022-07-29T21:00:00,2400.0,42.79,6.0312,-0.025,-0.006,-0.006,69.0,63.0,66.0,13.1,1504.9,219.7,-0.5,0.0,2393.266,13.34,0.025,256.5
13,2022-07-29T21:30:00,2400.0,42.79,6.0312,-0.046,-0.005,-0.024,65.0,60.0,64.0,13.1,1504.9,219.7,-0.5,0.0,2393.263,13.34,0.046,263.8
13,2022-07-29T22:00:00,2400.0,42.79,6.0312,-0.044,-0.013,-0.015,64.0,56.0,58.0,13.1,1504.9,223.0,-0.3,0.0,2393.255,13.34,0.045,253.5
13,2022-07-29T22:30:00,2400.0,42.79,6.0312,-0.035,-0.003,-0.02,65.0,59.0,60.0,13.1,1504.9,222.3,-0.4,0.1,2393.226,13.34,0.035,265.1
13,2022-07-29T23:00:00,2400.0,42.79,6.0312,-0.041,-0.012,0.004,64.0,60.0,62.0,13.1,1504.9,222.8,-0.7,0.1,2393.259,13.34,0.042,253.7
